Time,TemperatureF,DewpointF,PressureIn,WindDirection,WindDirectionDegrees,WindSpeedMPH,WindSpeedGustMPH,Humidity,HourlyPrecipIn,Conditions,Clouds,dailyrainin,SoftwareType,DateUTC
2013-07-11 00:03:00,71.2,66.5,29.72,NNE,22,8.3,-999.0,85,-99.99,,,0.00,Acu-Link.com,2013-07-11 04:03:00,
2013-07-11 00:18:00,71.1,65.0,29.72,NNE,22,7.8,-999.0,81,-99.99,,,0.00,Acu-Link.com,2013-07-11 04:18:00,
2013-07-11 00:33:00,70.3,64.9,29.72,NNE,22,7.3,-999.0,83,-99.99,,,0.00,Acu-Link.com,2013-07-11 04:33:00,
2013-07-11 00:48:00,69.6,64.9,29.71,North,0,4.7,-999.0,85,-99.99,,,0.00,Acu-Link.com,2013-07-11 04:48:00,
2013-07-11 01:03:00,68.4,65.0,29.72,NNE,22,6.3,-999.0,89,-99.99,,,0.00,Acu-Link.com,2013-07-11 05:03:00,
2013-07-11 01:19:00,67.5,66.0,29.72,NNE,22,4.2,-999.0,95,-99.99,,,0.00,Acu-Link.com,2013-07-11 05:19:00,
2013-07-11 01:34:00,66.9,66.0,29.72,NNE,22,3.2,-999.0,97,-99.99,,,0.00,Acu-Link.com,2013-07-11 05:34:00,
2013-07-11 01:49:00,66.7,66.1,29.72,North,0,4.2,-999.0,98,-99.99,,,0.00,Acu-Link.com,2013-07-11 05:49:00,
2013-07-11 02:05:00,66.2,65.6,29.71,NNE,22,4.7,-999.0,98,-99.99,,,0.00,Acu-Link.com,2013-07-11 06:05:00,
2013-07-11 02:20:00,65.3,65.0,29.72,NNW,337,3.7,-999.0,99,-99.99,,,0.00,Acu-Link.com,2013-07-11 06:20:00,
2013-07-11 02:35:00,64.6,64.3,29.72,NW,315,3.2,-999.0,99,-99.99,,,0.00,Acu-Link.com,2013-07-11 06:35:00,
2013-07-11 02:50:00,64.4,64.1,29.72,NW,315,5.8,-999.0,99,-99.99,,,0.00,Acu-Link.com,2013-07-11 06:50:00,
2013-07-11 03:06:00,64.0,63.7,29.72,North,0,3.2,-999.0,99,-99.99,,,0.00,Acu-Link.com,2013-07-11 07:06:00,
2013-07-11 03:21:00,63.1,62.8,29.73,NNW,337,3.2,-999.0,99,-99.99,,,0.00,Acu-Link.com,2013-07-11 07:21:00,
2013-07-11 03:36:00,63.0,62.7,29.73,NNE,22,2.7,-999.0,99,-99.99,,,0.00,Acu-Link.com,2013-07-11 07:36:00,
2013-07-11 03:51:00,63.0,62.7,29.73,North,0,3.2,-999.0,99,-99.99,,,0.00,Acu-Link.com,2013-07-11 07:51:00,
2013-07-11 04:06:00,62.6,62.3,29.73,NNE,22,4.2,-999.0,99,-99.99,,,0.00,Acu-Link.com,2013-07-11 08:06:00,
2013-07-11 04:22:00,62.8,62.5,29.73,NW,315,4.2,-999.0,99,-99.99,,,0.00,Acu-Link.com,2013-07-11 08:22:00,
2013-07-11 04:37:00,62.8,62.5,29.73,North,0,6.3,-999.0,99,-99.99,,,0.00,Acu-Link.com,2013-07-11 08:37:00,
2013-07-11 04:52:00,62.8,62.5,29.73,North,0,6.8,-999.0,99,-99.99,,,0.00,Acu-Link.com,2013-07-11 08:52:00,
2013-07-11 05:07:00,62.4,62.1,29.74,NNW,337,6.3,-999.0,99,-99.99,,,0.00,Acu-Link.com,2013-07-11 09:07:00,
2013-07-11 05:22:00,61.9,61.6,29.74,NNW,337,6.3,-999.0,99,-99.99,,,0.00,Acu-Link.com,2013-07-11 09:22:00,
2013-07-11 05:37:00,61.3,61.0,29.74,NNE,22,5.3,-999.0,99,-99.99,,,0.00,Acu-Link.com,2013-07-11 09:37:00,
2013-07-11 05:53:00,61.2,60.9,29.75,NNW,337,3.7,-999.0,99,-99.99,,,0.00,Acu-Link.com,2013-07-11 09:53:00,
2013-07-11 06:08:00,61.0,60.7,29.75,NNE,22,5.3,-999.0,99,-99.99,,,0.00,Acu-Link.com,2013-07-11 10:08:00,
2013-07-11 06:23:00,60.6,60.3,29.76,North,0,4.2,-999.0,99,-99.99,,,0.00,Acu-Link.com,2013-07-11 10:23:00,
2013-07-11 06:38:00,60.3,60.0,29.76,NNE,22,4.2,-999.0,99,-99.99,,,0.00,Acu-Link.com,2013-07-11 10:38:00,
2013-07-11 06:54:00,60.8,60.5,29.76,NNE,22,4.2,-999.0,99,-99.99,,,0.00,Acu-Link.com,2013-07-11 10:54:00,
2013-07-11 07:09:00,61.7,61.4,29.77,NNW,337,4.7,-999.0,99,-99.99,,,0.00,Acu-Link.com,2013-07-11 11:09:00,
2013-07-11 07:24:00,62.4,61.8,29.77,NNW,337,5.8,-999.0,98,-99.99,,,0.00,Acu-Link.com,2013-07-11 11:24:00,
2013-07-11 07:40:00,63.0,62.4,29.77,North,0,5.3,-999.0,98,-99.99,,,0.00,Acu-Link.com,2013-07-11 11:40:00,
2013-07-11 07:55:00,64.2,62.7,29.78,WNW,292,5.8,-999.0,95,-99.99,,,0.00,Acu-Link.com,2013-07-11 11:55:00,
2013-07-11 08:10:00,65.7,63.6,29.78,NE,45,5.3,-999.0,93,-99.99,,,0.00,Acu-Link.com,2013-07-11 12:10:00,
2013-07-11 08:25:00,66.6,63.9,29.79,NNW,337,6.8,-999.0,91,-99.99,,,0.00,Acu-Link.com,2013-07-11 12:25:00,
2013-07-11 08:40:00,67.6,64.2,29.78,NNE,22,7.3,-999.0,89,-99.99,,,0.00,Acu-Link.com,2013-07-11 12:40:00,
2013-07-11 08:56:00,68.2,64.2,29.78,NNE,22,9.4,-999.0,87,-99.99,,,0.00,Acu-Link.com,2013-07-11 12:56:00,
2013-07-11 09:11:00,69.1,64.4,29.77,NNE,22,8.3,-999.0,85,-99.99,,,0.00,Acu-Link.com,2013-07-11 13:11:00,
2013-07-11 09:26:00,70.7,65.6,29.77,NNE,22,5.8,-999.0,84,-99.99,,,0.00,Acu-Link.com,2013-07-11 13:26:00,
2013-07-11 09:41:00,70.9,65.1,29.78,NNE,22,8.3,-999.0,82,-99.99,,,0.00,Acu-Link.com,2013-07-11 13:41:00,
2013-07-11 09:56:00,70.9,65.1,29.78,NE,45,6.8,-999.0,82,-99.99,,,0.00,Acu-Link.com,2013-07-11 13:56:00,
2013-07-11 10:11:00,71.8,65.3,29.78,NE,45,9.4,-999.0,80,-99.99,,,0.00,Acu-Link.com,2013-07-11 14:11:00,
2013-07-11 10:26:00,72.5,65.6,29.79,NNE,22,10.9,-999.0,79,-99.99,,,0.00,Acu-Link.com,2013-07-11 14:26:00,
2013-07-11 10:41:00,73.4,65.7,29.78,North,0,12.5,-999.0,77,-99.99,,,0.00,Acu-Link.com,2013-07-11 14:41:00,
2013-07-11 10:56:00,73.6,65.6,29.79,NNE,22,13.0,-999.0,76,-99.99,,,0.00,Acu-Link.com,2013-07-11 14:56:00,
2013-07-11 11:11:00,74.3,66.6,29.79,NNE,22,7.3,-999.0,77,-99.99,,,0.00,Acu-Link.com,2013-07-11 15:11:00,
2013-07-11 11:26:00,74.3,66.2,29.78,NE,45,6.3,-999.0,76,-99.99,,,0.00,Acu-Link.com,2013-07-11 15:26:00,
2013-07-11 11:42:00,75.0,64.9,29.79,NNE,22,12.5,-999.0,71,-99.99,,,0.00,Acu-Link.com,2013-07-11 15:42:00,
2013-07-11 11:57:00,74.8,65.2,29.80,NNE,22,15.5,-999.0,72,-99.99,,,0.00,Acu-Link.com,2013-07-11 15:57:00,
2013-07-11 12:12:00,75.4,64.9,29.80,NNE,22,11.4,-999.0,70,-99.99,,,0.00,Acu-Link.com,2013-07-11 16:12:00,
2013-07-11 12:42:00,77.7,65.0,29.80,ENE,67,5.8,-999.0,65,-99.99,,,0.00,Acu-Link.com,2013-07-11 16:42:00,
2013-07-11 12:58:00,78.1,64.5,29.80,North,0,7.3,-999.0,63,-99.99,,,0.00,Acu-Link.com,2013-07-11 16:58:00,
2013-07-11 13:28:00,77.2,64.9,29.81,NNE,22,6.3,-999.0,66,-99.99,,,0.00,Acu-Link.com,2013-07-11 17:28:00,
2013-07-11 13:58:00,75.9,62.8,29.80,NE,45,5.8,-999.0,64,-99.99,,,0.00,Acu-Link.com,2013-07-11 17:58:00,
2013-07-11 14:13:00,78.1,64.0,29.79,NE,45,10.9,-999.0,62,-99.99,,,0.00,Acu-Link.com,2013-07-11 18:13:00,
2013-07-11 14:44:00,77.2,63.2,29.80,North,0,8.3,-999.0,62,-99.99,,,0.00,Acu-Link.com,2013-07-11 18:44:00,
2013-07-11 14:59:00,78.3,63.7,29.80,NNE,22,13.5,-999.0,61,-99.99,,,0.00,Acu-Link.com,2013-07-11 18:59:00,
2013-07-11 15:14:00,79.3,66.0,29.79,NNE,22,11.4,-999.0,64,-99.99,,,0.00,Acu-Link.com,2013-07-11 19:14:00,
2013-07-11 15:29:00,78.1,64.9,29.79,NNE,22,7.3,-999.0,64,-99.99,,,0.00,Acu-Link.com,2013-07-11 19:29:00,
2013-07-11 15:44:00,78.4,64.7,29.79,NNE,22,8.9,-999.0,63,-99.99,,,0.00,Acu-Link.com,2013-07-11 19:44:00,
2013-07-11 16:15:00,78.6,64.9,29.79,North,0,9.9,-999.0,63,-99.99,,,0.00,Acu-Link.com,2013-07-11 20:15:00,
2013-07-11 16:30:00,79.9,64.8,29.80,ENE,67,3.7,-999.0,60,-99.99,,,0.00,Acu-Link.com,2013-07-11 20:30:00,
2013-07-11 16:45:00,77.7,63.6,29.79,NE,45,10.9,-999.0,62,-99.99,,,0.00,Acu-Link.com,2013-07-11 20:45:00,
2013-07-11 17:00:00,77.5,63.4,29.79,NNW,337,9.9,-999.0,62,-99.99,,,0.00,Acu-Link.com,2013-07-11 21:00:00,
2013-07-11 17:15:00,76.8,63.2,29.79,NNE,22,12.5,-999.0,63,-99.99,,,0.00,Acu-Link.com,2013-07-11 21:15:00,
2013-07-11 17:30:00,77.7,62.2,29.79,NE,45,6.8,-999.0,59,-99.99,,,0.00,Acu-Link.com,2013-07-11 21:30:00,
2013-07-11 17:45:00,78.4,62.9,29.78,North,0,6.8,-999.0,59,-99.99,,,0.00,Acu-Link.com,2013-07-11 21:45:00,
2013-07-11 18:00:00,78.3,63.3,29.79,SSW,202,6.3,-999.0,60,-99.99,,,0.00,Acu-Link.com,2013-07-11 22:00:00,
2013-07-11 18:15:00,77.9,62.4,29.79,ENE,67,11.4,-999.0,59,-99.99,,,0.00,Acu-Link.com,2013-07-11 22:15:00,
2013-07-11 18:30:00,78.6,64.0,29.78,NNE,22,6.8,-999.0,61,-99.99,,,0.00,Acu-Link.com,2013-07-11 22:30:00,
2013-07-11 18:45:00,78.6,63.5,29.79,ENE,67,8.3,-999.0,60,-99.99,,,0.00,Acu-Link.com,2013-07-11 22:45:00,
2013-07-11 19:00:00,78.4,62.9,29.79,NNE,22,4.7,-999.0,59,-99.99,,,0.00,Acu-Link.com,2013-07-11 23:00:00,
2013-07-11 19:16:00,78.1,62.6,29.79,NNE,22,4.7,-999.0,59,-99.99,,,0.00,Acu-Link.com,2013-07-11 23:16:00,
2013-07-11 19:31:00,78.1,63.1,29.79,NE,45,4.7,-999.0,60,-99.99,,,0.00,Acu-Link.com,2013-07-11 23:31:00,
2013-07-11 19:46:00,78.4,64.3,29.79,NNE,22,7.3,-999.0,62,-99.99,,,0.00,Acu-Link.com,2013-07-11 23:46:00,
2013-07-11 20:01:00,77.4,64.2,29.77,North,0,6.8,-999.0,64,-99.99,,,0.00,Acu-Link.com,2013-07-12 00:01:00,
2013-07-11 20:16:00,76.6,63.9,29.78,NE,45,5.8,-999.0,65,-99.99,,,0.00,Acu-Link.com,2013-07-12 00:16:00,
2013-07-11 20:32:00,76.1,64.3,29.77,North,0,4.7,-999.0,67,-99.99,,,0.00,Acu-Link.com,2013-07-12 00:32:00,
2013-07-11 20:47:00,74.7,63.8,29.78,North,0,4.2,-999.0,69,-99.99,,,0.00,Acu-Link.com,2013-07-12 00:47:00,
2013-07-11 21:02:00,73.2,64.0,29.78,WNW,292,3.7,-999.0,73,-99.99,,,0.00,Acu-Link.com,2013-07-12 01:02:00,
2013-07-11 21:33:00,70.2,63.7,29.77,NNW,337,2.7,-999.0,80,-99.99,,,0.00,Acu-Link.com,2013-07-12 01:33:00,
2013-07-11 21:48:00,69.1,64.1,29.78,NW,315,2.7,-999.0,84,-99.99,,,0.00,Acu-Link.com,2013-07-12 01:48:00,
2013-07-11 22:03:00,67.8,63.8,29.77,NW,315,2.7,-999.0,87,-99.99,,,0.00,Acu-Link.com,2013-07-12 02:03:00,
2013-07-11 22:18:00,67.5,63.8,29.78,North,0,3.2,-999.0,88,-99.99,,,0.00,Acu-Link.com,2013-07-12 02:18:00,
2013-07-11 22:34:00,66.9,63.9,29.78,NW,315,4.2,-999.0,90,-99.99,,,0.00,Acu-Link.com,2013-07-12 02:34:00,
2013-07-11 22:49:00,66.6,63.6,29.78,NNE,22,4.7,-999.0,90,-99.99,,,0.00,Acu-Link.com,2013-07-12 02:49:00,
2013-07-11 23:04:00,66.4,63.7,29.79,NNE,22,4.2,-999.0,91,-99.99,,,0.00,Acu-Link.com,2013-07-12 03:04:00,
2013-07-11 23:19:00,66.2,63.5,29.79,North,0,3.2,-999.0,91,-99.99,,,0.00,Acu-Link.com,2013-07-12 03:19:00,
2013-07-11 23:34:00,65.7,63.3,29.79,NNW,337,3.7,-999.0,92,-99.99,,,0.00,Acu-Link.com,2013-07-12 03:34:00,
2013-07-11 23:50:00,65.1,63.0,29.80,North,0,2.7,-999.0,93,-99.99,,,0.00,Acu-Link.com,2013-07-12 03:50:00,